Location: Unspecified
(0.0000°N, 0.0000°E)
Time: 23:44:03
(UTC+00:00)

S-56A Canister/Altair - Pass Details

Date: 07 October 2020
Orbit: 633 x 2499 km, 38.9° (Epoch: 28 October)

Event Time Altitude Azimuth Distance (km) Brightness Sun altitude
Rises 08:04:24 0° 224° (SW) 3,780 10.8 34.0°
Reaches altitude 10° 08:06:41 10° 223° (SW) 3,019 10.4 34.5°
Maximum altitude 08:14:18 77° 137° (SE) 1,546 9.9 36.4°
Drops below altitude 10° 08:26:05 10° 52° (NE) 4,516 12.1 39.3°
Sets 08:30:14 0° 51° (NE) 5,748 12.5 40.4°
